Terminal Aerodrome Forecast
Issued by NWS Paducah, KY

Home | Current Version | Previous Version | Text Only | Print | Product List | Glossary On
Versions: 1 2 3 4 5 6 7 8 9 10 11 12 13 14 15 16 17 18
000
FTUS43 KPAH 241720
TAFPAH
TAF
KPAH 241720Z 2418/2518 21015G27KT P6SM SCT040
      TEMPO 2420/2423 5SM -TSRA BR BKN025CB
     FM250000 26012G17KT P6SM BKN040
     FM250600 29012G18KT P6SM SCT100
     FM251300 30010KT P6SM SCT250=

USA.gov is the U.S. government's official web portal to all federal, state and local government web resources and services.